User: anonymous   Login
Location: Brno
(49.2000°N, 16.6330°E)
Time: 04:07:27
(UTC+02:00)
Language:

BREEZE M DEB (TANK) - Orbit

View from above orbital plane
View from above orbital plane
View from above satellite
View from above satellite

Ground track
Ground track

The orbit data is extracted from the following two-line orbital elements,

1 28359U 04022B   15147.72528402  .00004592  00000-0  48927-3 0  9996
2 28359 049.5323 074.7096 4704192 311.0470 019.7085 06.15179364238837
Epoch (UTC): 27 May 2015 17:24:24
Eccentricity: 0.4704192
inclination: 49.5323°
perigee height: 285 km
apogee height: 12122 km
right ascension of ascending node: 74.7096°
argument of perigee: 311.0470°
revolutions per day: 6.15179364
mean anomaly at epoch: 19.7085°
orbit number at epoch: 23883

The dashed part of the orbit path shows where the satellite is in the earth's shadow,  

DLR